Regional Weather Roundup
Issued by NWS

Current Version | Previous Version | Text Only | Print | Product List | Glossary On
Versions: 1 2 3 4 5 6 7 8 9 10 11 12 13 14 15 16 17 18 19 20 21 22 23 24 25 26 27 28 29 30 31 32 33 34 35 36 37 38 39 40 41 42 43 44 45 46 47 48 49 50
459
ASUS43 KDTX 220310
RWRMI
MICHIGAN HOURLY REGIONAL WEATHER ROUNDUP
NATIONAL WEATHER SERVICE DETROIT/PONTIAC MI
ISSUED BY NATIONAL WEATHER SERVICE GRAND RAPIDS MI
1100 PM EDT SAT JUL 21 2018

NOTE: "FAIR" INDICATES FEW OR NO CLOUDS BELOW 12,000 FEET WITH NO
SIGNIFICANT WEATHER AND/OR OBSTRUCTION TO VISIBILITY.

MIZ047>049-052>055-059>063-066>070-074>076-081>083-220400-
SOUTHEAST LOWER MICHIGAN

CITY           SKY/WX    TMP DP  RH WIND       PRES   REMARKS
ADRIAN         MOCLDY    69  66  90 E8        29.79R
ALMA           CLOUDY    68  68 100 NE6       29.84S
ANN ARBOR      MOCLDY    70  66  87 N6        29.79S
BAD AXE        MOCLDY    67  66  95 E5        29.87S
DETROIT CITY   MOCLDY    72  67  84 NE7       29.80S
DETROIT        CLOUDY    72  64  76 NE5       29.79S
FLINT          FAIR      70  66  87 E9        29.82S
GROSSE ILE     MOCLDY    71  66  86 NE6       29.77F
HILLSDALE      CLOUDY    68  64  88 NE3       29.79S
HOWELL         CLOUDY    69  66  90 NE3       29.81F

CITY           SKY/WX    TMP DP  RH WIND       PRES   REMARKS
JACKSON        FAIR      69  67  93 NE8       29.80R
LANSING        CLOUDY    68  67  96 NE6       29.82S
MASON          FAIR      68  65  92 N3        29.81F
MONROE         FAIR      70  67  93 NE3       29.77S
MT. CLEMENS    MOCLDY    72  72 100 E10       29.80R
PONTIAC        MOCLDY    70  69  97 E8        29.81R
PORT HURON     FAIR      70  64  83 E6        29.83S
TRI CITIES     CLOUDY    71  68  90 NE8       29.85S
YPSILANTI      MOCLDY    72  67  84 NE6       29.79S
$$
MIZ043>046-050>051-056>058-064>065-071>073-077>080-220400-
SOUTHWEST LOWER MICHIGAN

CITY           SKY/WX    TMP DP  RH WIND       PRES   REMARKS
BATTLE CREEK   LGT RAIN  69  67  93 NE7       29.81R
BENTON HARBOR  CLOUDY    68  66  93 CALM      29.78R
BIG RAPIDS     RAIN      68  66  94 NE3       29.86S
COLDWATER      LGT RAIN  68  66  94 E7        29.79S
HOLLAND        CLOUDY    69  66  90 NE3       29.81S
GRAND RAPIDS   CLOUDY    69  69 100 NE7       29.81S
KALAMAZOO      LGT RAIN  70  67  90 NE3       29.80R
MARSHALL       CLOUDY    68  66  94 CALM      29.80R
MOUNT PLEASANT CLOUDY    69  69 100 NE5       29.84S
MUSKEGON       CLOUDY    70  66  87 N7        29.83R
STURGIS        DRIZZLE   67  67  99 NE7       29.78R
$$
MIZ016>042-220400-
NORTHERN LOWER MICHIGAN

CITY           SKY/WX    TMP DP  RH WIND       PRES   REMARKS
ALPENA         CLOUDY    68  67  96 N3        29.93R
BEAVER ISLAND  LGT RAIN  69  67  96 NE8       29.95F
BELLAIRE       LGT RAIN  67  65  93 N7        29.91S
CADILLAC       DRIZZLE   66  65  96 NE6       29.89S
CHARLEVOIX     HVY RAIN  68  68 100 NE9       29.96F
GAYLORD        LGT RAIN  64  64 100 NE7       29.94S FOG
HOUGHTON LAKE  CLOUDY    66  65  96 NE9       29.90S
MANISTEE       MOCLDY    69  66  90 NE9       29.87R
OSCODA         LGT RAIN  68  67  97 NE5       29.90S
PELLSTON       HVY RAIN  68  67  96 E5        29.95S FOG
TRAVERSE CITY  LGT RAIN  70  67  90 NE12G22   29.88S
LUDINGTON      CLOUDY    68  66  94 CALM      29.86R
$$
MIZ007>008-015-220400-
EASTERN UPPER MICHIGAN

CITY           SKY/WX    TMP DP  RH WIND       PRES   REMARKS
KINROSS        CLOUDY    68  67  96 N9        29.98R
MACKINAC ISLAN DRIZZLE   68  68 100 N9        29.95S
NEWBERRY       LGT RAIN  65  64  97 NE8       29.99S
S. S. MARIE    MOCLDY    70  66  87 VRB5      29.98S
$$
MIZ004>006-011>014-085-220400-
CENTRAL UPPER MICHIGAN

CITY           SKY/WX    TMP DP  RH WIND       PRES   REMARKS
MANISTIQUE     DRIZZLE   66  64  94 N9        29.97S
ESCANABA       CLOUDY    63  61  93 N9        29.99R
MENOMINEE      CLOUDY    66  63  90 N10       29.97R
SAWYER-GWINN   CLOUDY    59  56  89 N14       30.05S
$$
MIZ001>003-009>011-084-220400-
WESTERN UPPER MICHIGAN

CITY           SKY/WX    TMP DP  RH WIND       PRES   REMARKS
IRON MOUNTAIN  CLOUDY    65  60  84 N12       30.02R
HOUGHTON       CLOUDY    60  55  83 NW6       30.09R
COPPER HARBOR    N/A     57  53  86 VRB5      30.10R
IRONWOOD       FAIR      59  57  93 NE5       30.12R
$$

ABBREVIATIONS USED IN REMARKS
   TC - TEMPERATURE IN CELSIUS
  WCI - WIND CHILL INDEX
   HX - HEAT INDEX
  VSB - VISIBILITY





USA.gov is the U.S. government's official web portal to all federal, state and local government web resources and services.